User: anonymous   Login
Location: Oshawa
(43.9000°N, 78.8670°W)
Time: 09:06:41
(UTC-04:00)
Language:

CARTOSAT-1 - Orbit

View from above orbital plane
View from above orbital plane
View from above satellite
View from above satellite

Ground track
Ground track

The orbit data is extracted from the following two-line orbital elements,

1 28649U 05017A   16205.12508434  .00000227  00000-0  34133-4 0  9992
2 28649  97.8972 278.0000 0003298  57.0404 303.1135 14.83438889607197
Epoch (UTC): 23 July 2016 03:00:07
Eccentricity: 0.0003298
inclination: 97.8972°
perigee height: 616 km
apogee height: 621 km
right ascension of ascending node: 278.0000°
argument of perigee: 57.0404°
revolutions per day: 14.83438889
mean anomaly at epoch: 303.1135°
orbit number at epoch: 60719

The dashed part of the orbit path shows where the satellite is in the earth's shadow,  

DLR